FENGYUN 1C DEB

Satellite information

Favourite Embed

Satellite Type and Status

DEBRISIN ORBIT

Key statistics

Satellite FENGYUN 1C DEB at a glance.

Uptime

9715

Days in orbit

Revolutions

≈ 14.0

Per day

Orbit

SSO

Sun Synchronous Orbit

Inclination

98.8

Latest

Satellite identification and parameters

Extended collection of information and parameters for FENGYUN 1C DEB.

Object identification

Identified? True

Debris? True

Object name: FENGYUN 1C DEB

International designator: 1999-025CJU

Object number (NORAD): 31854

Object ID (CCSDS): 31854

Country: PEOPLES REPUBLIC OF CHINA (PRC)

Current information (Y/N): Y

RCS size: SMALL

Orbital parameters

Period: 102.632 minutes

Inclination: 98.8473 deg

SMA: 7261.31 km

Apoapsis: 935.652 km

Periapsis: 830.698 km

RAAN: 349.9436 deg

Eccentricy: 0.00722693

Argument of periapsis: 141.1479 deg

Mean anomaly: 219.4914 deg

Mean motion: 14.03073049 rev/day

Mean motion (dot): 0.00000951 rev/day2

B* drag term: 0.00062449752 1/REarth

Two-line elements (TLE)

Creation date: Dec. 13, 2025, 4:32 a.m.

Reference frame: TEME

Reference center: EARTH

Epoch: Dec. 12, 2025, 5:48 p.m. UTC

TLE line 0: 0 FENGYUN 1C DEB

TLE line 1: 1 31854U 99025CJU 25346.74229205 .00000951 00000-0 62450-3 0 9992

TLE line 2: 2 31854 98.8473 349.9436 0072269 141.1479 219.4914 14.03073049692720

Live tracking on map

Real-time ground track for satellite FENGYUN 1C DEB.

In-orbit conjunctions

A list of the most updated potential collisions computed for object FENGYUN 1C DEB.

Target Orbit TCA Probability of collision Miss distance Type
FENGYUN 1C DEB SSO 2025-04-05 17:07:20 0.0001056092 106.0 (m) DEBRIS
FENGYUN 1C DEB SSO 2024-11-12 16:10:05 0.0001038486 121.0 (m) DEBRIS
CZ-4 DEB SSO 2024-06-21 00:03:18 0.0003905888 66.0 (m) DEBRIS

Associated space launch

Chinese polar orbiting meteorological satellite

FENGYUN 1C DEB was lifted into orbit during the mission ‘Long March 4B | Feng Yun 1C’, on board a Long March 4B space rocket.

The launch took place on May 10, 1999, 1:33 a.m. from Launch Complex 7.

For more information about the launch, click the button.

Launch to space Long March 4B | Feng Yun 1C
Long March 4B | Feng Yun 1C

Agency: N/A

Status: Launch Successful

Launch date: May 10, 1999, 1:33 a.m. UTC

Rocket: Long March 4B

Launch pad: Launch Complex 7

Location: Taiyuan Satellite Launch Center, People's Republic of China

...

Latest news about this satellite

There are no fresh news available about this satellite. Check back as we update our databases every day.


Newsletter sign-up

Weekly statistics, charts and insights to help you stay on top of the space industry.